Location: Berg
(48.4333°N, 13.9167°E)
Time: 01:49:52
(UTC+00:00)

CZ-2C R/B - Pass Details

Date: 18 September 2020
Orbit: 640 x 704 km, 98.4° (Epoch: 24 October)

Event Time Altitude Azimuth Distance (km) Brightness Sun altitude
Rises 19:58:30 0° 10° (N) 2,962 7.4 -26.8°
Reaches altitude 10° 20:00:44 10° 6° (N) 2,051 6.6 -27.1°
Maximum altitude 20:05:05 54° 290° (WNW) 793 4.3 -27.6°
Enters shadow 20:05:31 51° 267° (W) 815 4.3 -27.7°
